Torna al catalogo

NOAA 17 DEB

AttivoPO
NORAD 48179·DEBRIS·🇺🇸 United States

Lanciato Jun 24, 2002 da Vandenberg Space Force Base

Loading…

Prossimi Passaggi (prossime 24 ore)

TLE

AggiornatoSource: Space-Track

Epoca: Sep 14, 2026, 08:41 UTC

1 48179U 02032U   26257.36226784  .00001585  00000-0  39753-3 0  9995
2 48179  98.8236 307.4071 0038477 101.3085 259.2436 14.52401669288542

Traccia NOAA 17 DEB in tempo reale con AllMySat

Download on the App Store